Theta_e
317 318 319 320 321 320 321 321 328 332 327 324 326 328 322 321 324 323 325 326 327 325 325 326 326 325 326 330 330 331 330 334 334 333 340 338 336 338 337 338 337 334 332 329 325 324 324 323 321 319 318 316 312 312 310 310 315 323 329 332 332 332 331 330 328 326 325 322 319 318 319 317 319 325 322 320 319 317 318 318 321 321 319 320 322 319 315 315 315 314 315 316 321 325 328 328 327
315 317 317 318 319 319 322 321 327 333 328 323 321 324 322 320 322 322 324 325 325 325 324 324 324 325 326 328 328 332 335 336 335 336 338 336 337 338 338 338 336 335 331 329 326 323 324 322 321 319 318 316 311 311 310 311 315 321 328 331 331 331 331 330 328 327 326 323 318 316 319 319 320 324 324 323 321 317 316 315 317 320 319 318 320 317 316 317 315 313 310 311 314 318 321 321 321
314 316 317 318 320 320 322 323 327 326 323 323 320 323 323 320 322 321 323 324 325 324 321 323 324 326 326 331 332 335 338 336 336 337 338 337 338 338 338 337 335 334 331 328 325 323 324 322 321 319 318 315 311 312 310 312 316 318 325 329 330 331 331 330 328 328 326 323 318 314 316 320 319 321 324 324 324 320 318 315 315 321 323 321 322 320 318 320 319 316 312 311 311 312 314 315 319
314 315 317 320 322 324 324 326 330 324 321 325 320 320 324 322 323 322 323 325 326 323 321 324 324 326 329 333 334 334 336 336 337 337 338 338 337 338 337 336 335 334 331 328 324 323 324 322 321 319 318 315 311 312 311 312 315 317 323 328 330 331 330 330 330 328 325 323 320 313 313 319 318 319 324 323 322 323 323 322 318 319 324 324 323 322 320 320 321 318 315 313 313 313 315 316 319
315 315 318 322 325 326 324 326 330 324 321 327 322 320 325 324 324 323 324 326 327 324 324 325 324 325 329 332 332 333 333 335 336 335 337 338 336 336 335 335 335 333 331 327 324 323 324 323 320 319 318 316 312 312 312 311 313 316 322 327 330 330 330 330 330 329 326 323 320 314 311 314 317 318 322 320 320 324 326 327 323 319 324 325 321 320 319 318 319 318 316 315 316 319 318 316 319
315 315 318 322 325 323 324 325 328 326 324 327 323 323 325 323 323 323 324 327 326 326 326 326 323 324 330 334 334 333 333 332 333 333 334 335 334 334 334 336 336 334 331 328 325 323 324 322 320 319 319 317 314 312 313 311 311 314 318 324 328 328 329 330 330 330 326 321 317 314 311 311 311 312 317 318 319 325 327 327 326 318 318 322 319 317 317 316 317 317 318 316 317 320 319 318 321
315 317 319 322 323 321 325 326 327 327 321 322 322 324 324 322 323 323 324 325 325 326 326 326 323 325 331 334 335 335 334 331 329 332 332 331 334 335 336 337 335 333 333 330 325 324 324 322 320 319 319 318 315 312 313 312 312 313 315 319 325 327 328 330 330 329 323 318 315 312 311 310 309 310 315 318 318 323 326 325 323 317 314 316 316 316 315 316 317 318 318 318 318 319 319 321 323
315 320 322 324 325 323 326 326 328 328 318 317 321 323 323 322 323 323 323 324 324 325 325 325 324 326 328 330 335 336 334 330 328 333 333 332 336 336 336 337 335 334 335 333 326 324 323 322 319 319 319 318 317 313 313 313 312 312 313 316 322 326 328 329 329 324 317 313 312 311 310 309 309 310 314 319 319 320 322 321 317 315 315 316 317 317 315 316 317 318 319 320 320 319 320 322 323
315 322 322 324 329 325 324 326 327 324 318 318 320 322 322 322 323 322 321 322 322 323 325 325 323 326 328 331 336 337 335 333 332 334 334 334 337 336 336 336 334 334 336 333 326 324 323 322 319 319 319 318 317 315 314 314 313 312 313 315 320 324 327 327 325 318 313 311 311 310 310 309 309 308 311 315 316 316 317 317 315 314 316 317 317 316 315 316 317 319 320 321 321 321 321 321 321
317 322 322 324 330 325 323 325 324 321 318 318 321 322 322 322 321 321 321 321 321 322 324 323 323 326 329 333 335 336 336 336 333 334 334 335 337 337 336 335 333 335 336 332 326 323 323 321 319 319 318 318 318 316 314 314 314 314 313 313 316 319 321 321 318 314 311 310 310 309 309 309 309 308 309 311 313 315 317 316 315 315 316 316 316 315 314 315 316 317 319 320 321 322 322 322 321
321 322 321 324 325 323 325 324 322 320 318 318 320 321 321 321 320 320 320 320 320 321 323 321 324 327 331 334 335 335 335 336 333 331 334 335 337 337 335 334 333 335 335 331 326 323 323 320 318 319 317 317 319 318 316 315 315 316 315 314 313 313 315 315 314 313 312 311 310 309 309 309 309 308 308 309 312 315 316 315 315 315 316 317 317 316 314 314 315 316 317 319 320 321 322 323 323
323 324 323 326 327 326 328 325 321 319 318 319 319 319 321 320 320 320 319 320 320 321 322 321 323 327 333 334 335 335 335 335 332 330 333 334 336 336 334 334 334 335 335 332 327 324 322 319 318 318 317 317 319 319 318 316 315 316 316 316 315 314 314 314 314 313 313 312 311 309 309 309 309 309 308 308 312 315 315 315 315 316 317 318 318 317 315 314 313 314 315 317 318 320 321 322 324
322 324 323 326 332 330 327 324 322 320 319 320 319 319 321 320 321 319 319 321 321 321 321 321 321 324 333 334 335 335 335 334 332 330 332 333 334 336 335 334 334 335 334 332 329 324 321 319 318 319 316 316 318 319 319 318 316 315 315 316 317 317 316 316 315 314 314 313 312 311 310 309 309 308 308 309 313 316 316 316 316 317 318 319 319 319 317 316 314 313 314 316 317 318 319 321 323
321 323 322 327 332 327 324 321 320 322 318 319 319 319 322 320 320 319 320 321 320 321 320 321 319 324 334 334 335 335 335 334 331 330 330 332 334 335 335 333 332 334 333 332 330 324 320 319 319 320 318 317 318 319 320 319 319 317 316 316 316 316 316 315 315 314 313 313 313 312 311 310 309 309 308 309 313 316 317 316 317 317 318 318 319 320 319 319 317 315 314 314 316 317 318 319 321
320 321 323 327 330 325 327 324 322 324 319 319 319 319 321 320 320 319 319 320 319 320 319 320 319 323 332 334 334 332 334 334 331 330 330 333 335 334 334 333 330 331 332 332 331 325 320 319 319 322 320 319 319 319 320 320 320 320 318 317 316 315 314 314 313 313 313 313 313 313 312 311 310 309 308 309 312 315 317 317 317 318 318 319 319 319 319 320 319 318 316 315 315 315 316 317 319
319 320 323 325 328 327 329 325 322 325 320 318 319 319 320 318 320 318 319 319 319 319 319 319 318 322 327 330 329 326 332 334 331 330 331 334 335 335 334 332 331 331 330 331 330 325 321 319 319 322 323 321 320 320 320 321 321 321 321 320 318 317 315 314 313 312 313 313 313 313 313 313 311 309 308 309 312 315 317 318 318 319 319 319 320 319 319 319 319 320 318 317 315 315 315 316 317
316 319 324 325 329 329 328 324 321 324 321 318 318 319 320 318 318 318 319 319 319 319 319 319 318 322 325 327 324 323 331 334 332 330 331 334 335 334 334 332 333 331 329 329 328 325 322 319 319 321 324 324 322 322 322 322 322 322 322 322 321 319 318 316 315 314 313 312 313 313 313 313 313 311 309 309 311 314 316 318 318 319 319 320 320 320 320 319 319 319 319 319 317 316 315 315 316
318 324 325 325 331 327 327 325 320 321 320 318 317 318 319 318 318 317 317 317 319 318 319 320 320 322 322 324 326 323 329 333 333 330 330 332 333 333 333 332 331 331 330 328 327 325 322 322 321 320 323 325 324 323 323 322 322 323 322 322 323 322 321 320 319 318 316 314 313 312 313 314 314 313 310 309 311 314 316 317 318 318 319 319 319 320 320 320 320 320 319 318 318 318 317 316 315
319 327 324 329 334 323 319 320 318 320 319 317 317 318 319 319 317 317 318 317 317 318 320 321 324 329 326 326 329 326 327 331 332 330 328 329 330 330 330 331 330 330 331 328 326 324 323 326 326 324 322 324 327 327 326 325 323 322 323 323 323 323 323 322 322 322 321 319 315 312 312 313 314 314 313 311 310 313 316 317 317 318 318 318 318 319 319 320 320 320 320 319 319 318 318 317 317
318 320 324 333 330 317 315 316 317 320 318 317 317 317 318 318 318 317 317 316 315 316 319 321 326 332 331 331 331 328 327 329 331 330 327 326 326 326 326 327 326 325 328 327 326 323 323 327 329 330 326 323 327 331 331 329 327 325 323 323 323 323 323 323 323 323 323 322 320 315 312 312 313 314 314 314 312 312 314 316 317 317 318 318 318 318 319 319 320 320 320 320 320 320 319 318 318
318 317 326 329 320 317 317 315 317 318 317 318 317 317 317 317 318 317 316 316 315 315 317 319 322 326 327 329 330 328 328 327 330 330 328 326 325 324 323 323 321 321 324 325 324 323 321 324 329 331 330 326 326 330 331 331 330 328 326 324 323 323 323 324 323 323 323 323 324 321 316 314 313 313 313 314 315 314 314 315 316 317 318 319 319 319 319 319 320 320 320 320 320 321 320 319 319
318 317 321 320 316 318 317 314 317 317 318 318 316 317 318 317 317 316 316 317 317 315 316 316 315 317 320 323 325 326 327 327 328 329 328 326 324 323 322 322 322 322 325 324 323 323 321 323 328 330 331 329 327 328 330 331 330 329 328 326 324 324 323 323 323 324 324 323 324 324 322 319 317 316 314 314 314 315 315 315 315 316 317 318 318 319 319 319 320 320 320 320 320 321 321 321 321
319 319 317 316 317 317 316 315 316 317 318 317 316 317 317 316 316 316 316 316 317 316 315 315 315 316 316 317 319 321 324 324 325 326 325 324 323 322 321 322 322 322 324 323 322 323 324 324 325 328 329 328 327 327 328 330 329 328 329 327 326 325 324 323 323 323 324 324 324 325 324 323 321 320 319 316 314 314 315 315 316 316 316 316 317 317 318 318 319 319 319 319 320 320 320 320 321
319 319 317 316 316 316 316 315 315 317 317 316 316 317 316 316 316 316 315 315 316 317 316 316 315 316 316 317 317 317 318 320 320 321 321 322 321 321 321 321 321 321 321 322 322 322 323 324 324 325 326 326 326 326 327 327 327 327 327 327 326 325 324 323 323 323 323 324 324 325 324 324 324 323 323 321 318 316 315 314 315 316 316 316 316 316 317 318 318 318 318 318 319 319 319 320 320
317 318 316 315 315 315 315 315 315 317 316 317 317 315 315 316 316 315 315 316 315 316 317 316 316 316 317 317 316 315 316 317 318 319 321 321 322 323 323 322 322 323 322 321 322 322 322 322 324 325 326 324 325 325 326 325 325 325 325 325 325 324 323 322 323 324 324 324 324 324 325 325 324 324 324 324 323 322 320 318 318 317 317 316 316 316 316 317 317 317 317 318 318 318 318 319 319
316 316 316 315 314 314 314 315 315 316 315 316 316 314 315 315 315 316 315 315 316 316 316 316 317 317 317 317 316 315 315 316 317 317 318 320 322 325 325 325 326 325 324 323 322 322 322 322 323 324 325 325 325 325 325 324 323 324 324 324 324 323 323 322 323 324 324 324 324 324 324 325 325 325 324 325 325 324 324 323 322 322 321 320 318 317 317 317 317 317 317 317 318 318 318 318 319
315 315 316 315 314 314 314 314 314 315 315 315 317 315 314 315 315 317 316 315 316 315 316 316 317 318 318 318 317 315 315 315 315 315 316 318 321 323 325 328 329 328 327 327 325 324 323 323 323 323 324 324 325 326 325 324 323 323 323 323 323 323 323 323 322 323 324 324 325 325 325 325 324 325 325 325 325 324 325 324 324 324 324 324 323 322 321 319 318 318 318 318 318 318 318 318 319
315 315 316 314 314 314 314 314 314 315 315 315 316 315 314 315 315 317 316 315 316 316 316 316 316 317 317 318 318 317 315 314 314 314 315 316 318 319 322 327 331 331 330 330 329 328 326 325 324 324 324 324 325 325 324 323 323 323 323 323 323 323 323 323 322 322 323 323 324 325 325 325 325 324 325 325 325 325 325 324 324 324 324 324 324 324 324 322 321 321 320 319 319 319 319 319 320
315 315 316 315 314 315 314 314 314 315 315 315 315 315 315 316 316 317 316 315 316 315 316 316 315 315 316 317 318 317 315 314 314 314 314 314 314 315 317 321 327 330 330 331 332 331 328 325 325 325 325 325 325 324 323 323 322 323 323 322 323 323 322 322 321 322 323 323 323 325 325 325 326 325 325 324 325 325 325 325 324 324 324 324 324 324 324 323 323 323 323 322 321 321 320 321 321
316 315 316 316 314 316 316 313 314 315 315 315 314 316 320 319 316 316 316 316 316 316 316 315 315 315 315 316 316 315 315 315 314 313 313 314 314 314 314 316 321 325 327 330 332 331 327 325 325 326 325 324 324 324 324 323 322 322 322 322 322 323 322 321 321 320 321 322 322 324 325 325 326 326 326 325 325 325 325 326 325 325 324 324 324 324 323 323 323 323 323 323 323 322 322 322 322
316 314 316 319 318 319 317 313 314 316 314 314 314 316 321 320 316 315 315 316 316 316 316 315 315 315 315 316 315 315 314 314 314 313 313 313 314 314 314 314 316 320 324 328 328 326 324 323 323 324 324 323 323 323 323 322 322 321 321 321 321 321 321 321 320 319 319 320 320 321 323 324 326 326 326 326 326 326 325 326 326 326 325 325 325 325 324 324 323 323 323 323 323 323 323 323 323
315 315 316 317 318 320 318 313 313 316 315 313 314 316 319 318 315 315 315 315 316 316 315 315 315 315 315 316 316 316 316 314 314 314 313 314 314 314 314 314 314 317 320 323 324 324 323 321 321 322 322 322 323 322 322 322 322 323 321 321 320 320 320 320 319 318 317 318 318 318 320 322 324 326 326 327 327 326 326 326 327 327 327 326 326 326 325 325 325 324 324 324 324 323 323 323 323
314 316 321 319 317 319 318 315 313 314 315 313 313 316 318 316 314 314 315 315 315 315 315 315 314 315 315 315 316 317 317 318 317 315 314 313 314 313 314 314 314 314 316 319 320 320 320 319 319 319 320 320 321 321 322 321 322 323 322 322 321 320 320 319 317 317 316 315 315 315 316 319 321 325 326 327 327 327 327 327 328 328 328 328 328 327 327 327 326 326 326 325 325 325 325 325 325
314 316 321 321 318 317 318 317 314 313 314 314 313 315 318 316 313 313 315 314 315 314 314 315 315 315 316 316 316 317 317 318 318 316 314 314 313 313 313 314 314 313 314 316 318 317 316 317 317 316 317 318 320 321 321 321 321 323 323 323 322 321 319 318 317 316 314 313 313 314 314 315 317 321 325 326 327 327 328 327 328 328 327 328 328 328 328 328 328 327 327 327 327 326 325 324 323
316 315 316 318 317 316 318 318 315 314 315 315 314 314 317 317 313 313 314 314 314 315 315 315 315 315 315 316 316 316 317 318 317 316 315 314 313 313 313 313 314 313 313 314 315 316 317 316 316 315 315 317 318 319 321 321 321 322 325 326 325 323 320 318 317 316 314 313 313 314 314 314 314 317 321 325 327 327 327 326 326 326 326 327 327 327 327 327 327 327 326 326 326 325 324 323 322
318 317 316 319 318 314 318 318 315 314 315 316 315 314 315 316 314 312 314 314 314 314 315 314 314 315 315 315 316 316 316 316 316 316 315 314 314 314 314 313 313 314 314 313 313 315 316 316 316 316 315 315 316 317 319 321 321 321 323 325 324 321 318 317 316 315 315 314 314 314 314 314 314 314 317 322 325 326 327 326 327 327 327 327 326 325 324 325 325 326 326 325 325 325 324 324 324
315 316 315 318 319 315 316 317 314 313 315 316 316 315 314 315 315 312 312 314 313 313 313 313 314 314 315 315 315 316 316 316 315 315 315 314 314 314 314 314 314 314 314 313 313 313 314 315 315 315 314 314 314 315 316 317 318 319 319 319 318 317 316 315 315 315 315 315 315 315 315 314 315 314 314 316 319 322 325 326 327 327 326 325 324 322 321 323 324 324 325 325 325 325 325 324 324
314 316 314 315 319 318 315 315 314 312 314 317 316 314 314 315 314 312 311 312 312 312 312 313 314 314 315 315 315 315 315 315 315 315 315 314 314 314 314 314 313 314 314 314 314 313 313 314 314 314 313 313 313 313 314 314 314 315 315 315 315 315 315 315 315 315 315 316 315 315 315 315 315 315 315 315 315 317 320 323 325 325 323 323 323 323 323 324 324 323 324 325 325 325 325 324 324
318 318 315 314 318 318 314 315 315 313 314 317 317 315 315 315 315 312 310 311 313 314 314 314 314 314 314 314 315 315 315 315 315 315 315 314 314 314 314 314 314 314 314 314 314 314 314 313 313 314 313 313 313 313 313 313 313 313 314 314 315 316 316 315 316 316 317 317 316 316 316 316 315 315 315 315 315 316 318 320 321 321 321 322 324 324 325 326 325 323 323 323 324 324 324 324 325
319 319 318 317 317 319 317 315 314 314 314 316 316 316 316 314 315 314 312 312 313 314 315 315 315 315 315 315 315 315 315 315 315 315 315 315 314 315 314 314 314 314 314 314 314 314 314 314 314 314 314 314 313 314 314 313 314 314 315 315 316 318 318 318 318 317 317 316 316 316 315 316 316 315 315 315 315 317 318 318 319 319 322 323 325 325 324 324 325 324 323 323 323 324 323 322 323
318 321 324 322 318 320 320 316 316 315 315 316 314 315 320 318 314 314 313 313 313 313 314 314 315 316 315 316 315 315 315 314 315 315 315 315 315 314 314 314 314 314 314 314 314 314 314 314 314 314 314 314 314 314 314 314 314 315 316 317 318 319 320 319 318 317 316 315 315 315 315 316 316 316 316 316 316 317 318 318 318 321 323 324 325 325 324 324 324 324 324 324 323 323 323 323 323
317 320 325 324 319 321 320 318 320 318 317 318 313 314 328 333 323 316 314 312 312 312 312 312 314 316 315 316 316 315 316 315 315 315 315 315 315 315 314 314 314 314 314 314 314 314 314 314 314 314 314 314 315 314 314 314 314 315 315 316 317 318 318 317 316 315 315 315 316 316 316 317 317 317 317 316 316 316 318 319 319 320 322 324 323 322 323 326 326 325 325 325 324 324 324 325 324
315 318 323 323 323 325 321 320 323 322 317 316 315 314 323 329 326 322 319 316 315 312 311 312 313 315 315 315 316 316 316 316 315 315 316 316 316 316 315 315 315 314 314 315 315 314 315 315 314 314 315 314 315 315 314 314 314 314 315 314 315 314 315 315 314 315 315 316 316 316 316 317 317 317 317 317 316 316 319 320 319 318 320 322 320 320 324 327 326 325 324 324 324 325 325 325 325
317 319 323 325 324 325 324 322 324 324 319 317 320 319 317 320 323 323 320 317 318 316 314 313 312 314 315 315 316 316 316 316 316 315 316 316 316 317 316 316 316 316 316 315 315 315 315 315 315 314 314 314 314 314 314 314 314 314 314 314 314 314 314 314 314 316 316 317 316 316 316 316 317 317 317 317 317 317 318 320 318 318 320 321 320 321 324 324 323 323 322 322 322 322 323 324 325
320 321 324 326 325 328 328 326 324 321 318 320 323 317 316 323 328 326 320 316 318 320 319 316 312 313 315 315 316 317 316 316 316 317 317 318 318 318 318 318 318 317 317 316 316 316 315 315 315 315 315 314 314 315 315 315 314 315 315 315 315 315 315 314 315 317 317 317 316 316 315 316 316 317 317 318 318 319 319 319 319 319 321 322 322 323 323 323 322 322 321 320 320 320 322 324 325
319 320 324 326 326 328 327 328 328 319 315 324 328 319 315 322 329 326 317 317 319 320 320 315 311 314 315 316 317 316 317 316 316 317 317 318 319 319 319 319 318 318 317 317 316 315 315 315 315 314 314 314 315 315 315 315 315 315 315 316 316 316 316 316 316 317 317 316 316 316 315 315 316 317 318 319 320 320 321 321 320 319 319 320 321 321 321 321 322 323 323 321 319 320 321 323 323
316 320 323 322 324 329 329 332 331 318 319 332 332 322 314 315 326 327 317 320 322 318 318 316 313 315 315 315 316 315 316 316 316 316 316 317 317 318 318 317 317 317 316 316 316 315 315 314 314 314 314 314 314 315 315 315 316 316 316 316 317 317 317 317 317 316 316 316 316 315 316 316 316 317 318 320 321 321 322 321 320 319 319 320 320 321 321 322 324 325 325 322 320 320 321 321 321
319 324 322 316 321 331 332 330 324 318 325 333 324 318 315 315 324 325 318 320 320 316 319 321 317 316 315 315 315 315 315 315 315 315 314 314 314 314 315 315 315 315 314 315 315 314 314 314 314 314 314 313 313 314 314 315 316 316 317 318 319 319 319 319 318 317 316 316 316 316 316 317 317 317 318 319 320 321 321 320 320 322 324 324 324 324 324 324 324 323 322 321 319 319 319 319 319
322 320 317 318 321 323 323 323 321 321 324 321 315 315 317 317 319 319 317 319 318 315 316 319 317 315 316 316 315 315 315 314 314 314 314 313 313 313 313 313 313 313 313 313 313 313 312 313 313 313 313 312 312 313 313 314 315 316 318 320 321 322 322 322 320 318 317 317 317 317 318 318 318 318 318 318 319 319 319 319 320 323 324 324 324 323 322 321 320 319 319 318 317 317 317 317 317
317 314 316 323 322 315 315 319 319 320 320 315 313 315 318 318 318 318 318 316 314 313 312 315 316 315 316 315 315 315 314 314 315 315 315 314 313 313 313 313 313 313 313 313 313 313 312 312 311 311 311 311 311 312 312 313 315 317 319 321 323 323 323 323 321 319 319 319 318 318 318 319 319 319 319 319 319 319 320 320 320 320 320 320 320 319 319 318 317 317 317 316 315 315 314 314 314
316 317 317 320 322 319 320 322 322 321 318 314 312 315 321 319 317 319 316 311 312 313 313 315 315 316 317 316 315 315 312 313 315 316 315 314 313 313 312 312 312 312 312 312 312 312 312 311 311 311 311 311 311 312 312 313 314 317 320 322 323 324 323 322 321 321 321 321 319 318 318 320 320 321 320 320 319 319 319 320 319 319 318 318 317 316 316 316 315 315 314 314 314 313 313 313 312
318 319 317 318 323 328 326 322 327 325 317 316 315 318 324 319 314 316 312 310 312 311 312 313 314 314 315 315 315 313 312 312 315 316 315 315 315 315 314 314 313 312 311 311 311 311 311 311 312 312 312 312 312 312 311 312 313 316 319 321 322 322 322 322 321 321 321 321 320 319 319 320 320 320 320 319 319 319 319 319 318 317 316 315 315 314 314 314 314 313 313 313 313 313 312 312 312
319 318 318 321 321 326 323 315 317 318 315 320 317 317 324 319 315 318 313 313 314 312 312 312 312 313 312 313 314 312 312 313 315 317 316 316 316 316 316 316 315 315 313 313 312 312 312 313 313 313 313 312 312 311 311 311 312 313 316 318 318 319 319 320 319 319 319 319 318 318 318 319 319 318 318 318 317 317 317 316 315 314 314 314 313 314 314 314 313 313 313 313 312 312 312 311 311
319 318 318 319 316 320 324 317 315 314 316 323 318 315 322 318 318 324 316 314 318 316 314 311 310 312 311 312 312 312 314 314 315 317 315 316 316 315 316 316 316 316 315 315 315 314 314 313 313 313 313 312 312 311 311 310 310 311 312 313 314 315 316 317 317 317 317 317 317 317 318 317 317 317 316 316 315 315 314 314 314 313 314 313 313 313 313 313 313 313 312 312 311 311 311 311 310
315 317 315 318 317 319 321 318 318 317 316 322 320 316 320 318 320 325 316 315 322 319 316 315 312 311 311 311 312 314 315 314 315 316 315 316 316 316 316 316 316 316 316 316 315 315 315 314 314 313 312 312 312 311 311 310 310 310 310 311 312 313 314 315 315 315 316 316 317 317 317 316 315 315 314 314 314 314 314 314 313 313 313 313 313 313 313 312 312 311 311 311 311 310 310 310 309
313 314 312 316 321 322 321 316 319 322 318 321 321 317 321 323 323 324 316 315 321 318 317 317 311 310 312 312 313 316 315 314 315 316 315 316 316 316 316 316 316 316 316 316 315 315 315 314 314 314 313 313 313 312 312 311 311 311 311 311 311 312 313 314 315 316 316 317 317 317 316 315 314 314 314 314 314 313 313 313 313 313 313 313 312 312 312 311 311 310 310 310 310 309 309 308 308
314 315 313 315 316 318 321 318 321 326 322 322 319 317 329 333 323 319 316 314 318 318 321 318 310 310 313 311 313 317 314 313 315 315 315 315 315 316 316 316 316 316 316 316 316 316 316 315 315 315 315 315 314 314 314 313 313 313 313 313 313 314 315 316 317 318 318 317 316 315 314 314 314 314 313 313 313 313 313 313 313 312 312 312 311 311 311 310 310 309 309 309 308 307 307 306 305
314 314 314 315 315 315 318 317 320 323 322 326 322 318 331 336 322 317 316 315 316 314 315 314 310 311 313 311 315 316 313 313 315 315 315 315 315 315 316 316 316 316 316 316 316 316 316 316 316 316 315 315 315 315 315 315 315 315 315 315 316 316 317 317 318 317 316 315 314 314 313 313 313 313 313 312 312 313 312 312 312 312 311 311 310 310 310 309 309 308 308 307 306 305 303 303 302
Wind_Speed
6 6 6 6 8 9 5 3 1 2 2 0 3 1 1 2 5 5 5 6 5 6 12 12 13 13 8 11 14 13 11 3 3 2 6 14 20 17 15 14 12 13 13 13 12 12 12 11 10 10 10 10 10 12 14 14 14 15 15 15 13 12 11 11 12 14 15 15 15 14 14 14 15 15 15 16 16 16 15 16 16 16 16 16 17 17 17 17 17 17 17 17 16 15 14 13 13
6 5 4 6 8 6 4 3 1 3 4 1 3 2 4 2 6 7 6 5 6 8 13 15 14 14 14 16 12 9 12 9 7 15 21 23 22 17 15 16 13 13 13 13 13 12 12 11 10 9 9 10 11 13 14 14 14 14 15 14 13 12 11 11 12 13 14 15 15 15 14 13 14 15 16 16 16 17 16 16 17 16 17 17 17 17 17 18 18 18 18 18 17 15 14 13 14
4 4 3 6 5 4 6 4 1 1 3 0 3 3 1 5 6 6 8 11 14 15 15 14 12 11 13 12 8 6 6 11 20 26 25 22 22 20 17 16 14 13 13 13 13 12 12 11 10 9 9 10 12 13 15 15 13 14 15 14 13 11 10 10 11 12 13 14 15 15 14 12 14 16 16 17 17 18 17 17 17 16 17 17 17 17 17 17 18 19 19 19 19 18 17 16 17
4 4 4 4 2 2 2 2 2 2 1 3 2 3 2 7 7 8 13 18 17 14 13 9 7 9 13 12 9 11 8 11 21 26 24 22 22 22 18 16 16 14 13 13 14 13 12 10 9 9 10 10 12 13 14 15 13 13 14 14 13 11 10 10 11 11 12 13 13 14 14 13 13 15 16 16 16 16 16 16 17 17 17 17 17 17 17 17 18 19 20 20 20 20 19 18 18
4 4 4 2 1 1 1 1 1 2 2 3 3 1 4 8 8 9 14 18 15 12 11 6 3 7 12 10 7 9 10 15 20 23 26 22 20 21 19 17 16 15 14 13 14 13 12 10 9 9 10 11 12 13 13 14 14 13 14 14 13 12 11 10 9 8 10 11 11 12 14 14 13 14 15 16 16 16 15 14 15 17 17 16 16 17 17 18 18 19 20 20 20 20 19 18 18
4 5 5 3 1 2 1 0 1 1 5 4 5 4 6 7 11 14 15 16 12 10 9 5 6 8 10 9 11 11 13 15 19 22 25 23 21 21 19 17 16 15 15 14 14 13 12 10 9 9 10 11 11 13 13 13 13 14 14 14 14 12 11 10 8 7 8 9 10 11 13 13 13 15 16 15 15 15 14 13 13 14 15 15 15 17 17 18 19 19 20 20 20 19 18 18 17
4 3 3 2 2 2 2 2 2 2 4 3 7 7 7 9 16 18 14 12 7 7 8 6 10 10 7 8 12 10 10 12 19 21 22 24 23 20 18 17 16 16 15 14 14 13 12 10 9 9 10 11 11 12 13 13 13 14 13 13 14 13 11 10 8 7 7 8 10 10 11 12 13 14 15 15 15 14 13 12 11 12 14 14 15 16 17 18 18 19 19 19 19 18 17 17 15
3 2 1 1 0 1 1 2 3 3 1 2 8 10 13 16 20 16 10 9 5 6 7 7 11 8 3 9 8 7 12 12 16 20 21 24 23 20 17 16 15 16 15 13 14 13 12 10 9 9 10 11 11 12 12 13 13 14 13 13 14 13 12 10 8 6 7 8 9 9 10 11 12 13 13 13 13 13 11 11 11 12 14 15 16 17 17 17 18 19 19 19 18 17 16 15 14
3 2 1 1 1 1 1 1 3 3 2 2 7 11 19 21 21 15 7 8 8 7 8 7 8 7 5 11 11 10 14 12 15 20 23 24 23 20 17 16 16 16 14 13 14 14 12 10 9 9 10 11 11 12 12 13 13 13 12 12 13 12 11 10 8 6 7 8 9 9 9 10 11 11 11 11 11 12 12 12 13 14 16 17 17 17 17 17 17 17 18 18 17 16 15 14 13
2 2 2 1 2 0 3 3 2 2 2 3 8 14 20 20 19 16 10 9 10 9 9 6 7 10 11 12 11 10 13 13 17 21 24 25 24 20 18 17 16 15 14 14 14 15 13 11 9 10 11 11 12 12 12 13 13 13 12 12 12 11 10 9 7 7 8 9 10 10 9 10 10 10 10 10 11 12 14 15 15 16 16 16 16 16 16 16 16 16 16 17 16 15 15 14 14
1 2 2 2 2 1 3 2 3 2 2 2 7 14 19 20 18 15 14 10 10 11 9 6 9 16 14 9 9 10 13 14 16 22 27 28 24 21 19 17 15 15 14 14 15 15 13 11 10 10 11 12 12 12 12 12 13 13 13 12 11 11 10 9 8 8 9 10 10 11 10 10 10 10 10 10 11 13 14 15 15 15 15 15 15 16 15 15 15 15 15 15 15 15 14 14 14
0 2 1 2 2 4 4 3 5 3 2 0 3 9 14 19 15 11 13 11 11 12 10 8 9 15 9 5 11 13 14 14 16 23 29 29 24 21 19 17 16 15 13 13 15 15 13 11 11 10 11 12 13 13 12 12 12 13 13 12 11 11 11 10 9 9 9 10 10 11 10 10 10 10 10 10 11 13 14 14 14 14 14 14 15 15 15 15 14 14 14 14 14 14 13 13 13
2 1 2 2 3 3 3 4 6 3 1 2 4 7 11 15 13 15 17 13 14 10 8 9 6 10 7 5 15 16 15 16 18 24 30 28 24 21 18 17 18 16 14 13 15 15 14 12 11 11 11 12 13 13 12 12 12 12 12 12 11 10 10 10 9 9 9 10 10 10 10 10 10 10 10 11 11 12 13 13 13 13 13 14 14 14 14 14 14 14 13 13 13 13 13 12 12
2 3 1 2 1 1 3 4 4 4 3 4 7 10 11 10 10 18 19 11 10 9 9 9 5 6 7 7 13 19 18 18 20 25 29 27 23 21 19 18 19 17 14 14 15 15 15 13 12 12 12 12 13 13 13 12 12 12 12 12 11 10 9 9 9 8 8 9 9 10 9 9 9 9 10 10 11 11 11 12 12 12 12 12 12 12 13 13 14 13 13 13 13 12 11 11 11
2 4 0 2 2 1 2 4 4 5 3 3 9 13 12 9 8 13 17 11 6 10 11 9 5 4 7 9 11 22 23 20 23 26 30 27 23 21 20 19 19 18 16 16 16 16 15 14 14 13 12 12 12 13 12 12 11 11 11 11 11 10 9 9 8 8 8 8 9 9 9 9 9 9 9 10 11 11 10 11 11 11 11 11 10 10 11 12 12 13 12 12 12 11 10 10 9
2 3 2 1 2 2 3 4 5 4 2 4 12 15 11 8 9 10 11 13 10 11 11 7 5 3 8 10 9 20 26 23 24 28 31 28 24 23 21 20 19 18 18 19 17 17 17 15 15 14 13 12 12 12 12 12 11 11 11 10 10 10 9 9 8 8 7 8 8 9 8 8 9 9 9 10 10 10 10 10 10 9 9 9 9 9 10 10 10 11 11 11 11 10 9 8 7
2 1 1 2 2 2 3 4 5 5 4 5 12 15 10 6 9 13 10 14 13 10 8 6 5 5 6 5 6 19 26 25 26 29 32 29 27 25 23 22 20 19 19 20 18 18 18 16 16 15 14 13 12 12 12 11 11 10 10 10 10 9 9 9 9 8 7 7 8 8 8 8 9 9 9 9 9 9 9 9 9 9 8 8 7 7 8 8 9 9 9 9 9 9 8 7 6
2 2 1 3 2 3 4 5 6 7 6 8 13 14 13 7 9 15 12 12 14 9 9 10 7 6 5 4 8 19 25 26 28 29 32 31 30 28 26 25 23 20 20 21 19 19 19 18 17 16 16 15 13 13 12 12 11 10 9 9 9 9 9 9 9 8 7 7 7 8 9 9 8 9 10 9 9 9 9 9 8 8 7 6 6 5 6 6 6 7 7 6 7 7 6 6 5
4 2 1 4 4 2 2 5 11 9 10 13 14 14 14 12 12 15 8 10 15 10 8 11 11 11 8 10 13 18 23 27 29 29 31 32 31 30 28 27 26 24 23 22 20 20 21 20 18 18 17 16 15 13 12 12 11 11 10 9 8 8 8 8 8 8 7 7 7 8 9 9 9 9 9 9 9 9 8 8 7 7 6 5 4 4 4 4 4 5 4 4 4 4 4 4 4
6 4 1 5 5 2 7 3 11 14 18 17 15 14 13 14 15 13 8 10 12 9 10 11 14 16 15 16 17 18 22 26 29 29 30 30 30 29 28 28 27 26 25 24 22 21 22 21 19 18 18 17 16 15 14 13 12 11 10 10 9 9 8 8 8 7 7 6 6 8 9 10 9 9 9 9 8 8 8 7 6 5 5 4 3 3 3 2 3 3 2 2 2 1 1 2 2
5 6 4 5 4 1 5 4 8 20 25 22 18 12 10 15 17 13 12 8 4 10 16 13 14 19 19 20 19 18 21 26 29 30 29 29 28 28 27 27 25 24 25 25 23 23 22 21 20 19 19 18 16 16 15 13 13 12 12 11 11 11 10 9 8 8 7 6 6 7 9 9 9 8 8 8 8 8 8 7 6 5 4 3 3 3 2 2 1 1 1 1 0 1 1 1 0
2 5 9 5 3 2 0 3 8 20 23 21 17 11 11 16 14 15 15 8 5 13 18 16 16 18 19 20 20 20 21 25 29 30 29 28 27 27 26 26 25 23 23 25 24 23 23 22 21 20 19 18 17 16 15 14 14 13 12 12 12 12 11 10 10 9 7 7 6 5 6 7 8 7 7 7 7 7 7 7 6 5 4 4 3 3 2 2 2 2 2 1 1 2 2 2 1
3 6 7 3 2 3 2 2 8 18 21 18 15 13 16 15 9 14 15 9 8 13 16 17 16 16 17 20 21 21 21 25 29 30 29 28 26 26 26 26 25 23 23 25 24 23 23 22 22 21 20 19 18 17 17 16 15 13 13 12 13 13 12 11 10 10 9 9 6 5 5 6 6 6 6 7 6 6 6 6 6 5 5 5 5 4 3 4 3 3 3 3 3 3 3 3 2
7 5 3 1 2 4 4 2 8 17 19 15 15 15 16 12 7 11 13 10 7 7 11 17 19 17 18 19 20 20 19 21 25 27 27 26 25 24 24 24 23 23 22 23 24 24 23 23 23 23 22 20 19 19 19 19 17 16 15 14 14 14 13 12 11 10 10 10 8 7 7 5 6 6 5 6 6 6 6 5 5 6 6 6 6 5 5 6 5 4 5 4 4 4 4 4 5
7 5 3 1 1 3 6 4 8 13 14 12 15 13 11 11 7 8 12 11 9 7 7 13 19 20 20 19 19 19 19 19 22 26 27 27 26 24 23 23 22 22 22 22 23 24 22 22 23 23 23 21 20 20 20 20 20 18 18 17 15 15 14 13 12 11 11 11 11 9 9 7 7 7 6 6 6 6 6 5 5 6 6 6 5 5 6 6 5 5 6 5 6 5 5 5 6
6 6 5 3 2 3 5 6 6 8 9 11 12 8 7 9 6 5 13 14 10 8 6 10 17 21 21 20 19 19 18 18 20 23 25 26 26 27 25 23 23 23 22 21 22 22 21 22 22 23 22 22 21 21 20 20 20 19 19 17 16 15 14 13 12 12 11 12 12 11 11 10 9 9 9 8 7 7 6 6 6 6 5 4 4 4 5 6 6 6 6 6 7 6 6 6 7
4 7 6 5 4 3 3 5 7 6 6 9 9 6 5 8 5 3 11 16 14 12 10 12 15 18 20 20 20 19 18 17 17 19 23 26 27 28 27 25 24 23 21 21 22 21 21 22 21 22 21 21 21 21 21 20 19 19 18 17 16 15 13 13 12 12 12 12 12 12 12 12 12 11 11 11 10 9 8 8 8 7 6 5 5 5 5 6 6 7 7 7 7 7 7 7 7
2 9 6 4 4 3 3 5 7 6 4 7 7 4 3 5 4 7 11 17 18 17 15 15 16 17 18 19 20 20 19 16 16 19 22 25 27 28 28 27 27 24 23 22 21 21 22 23 22 21 21 21 21 21 21 21 20 19 19 17 16 15 14 14 14 13 13 12 12 13 13 13 13 13 12 12 12 11 11 10 10 9 8 8 7 7 7 7 8 8 8 8 8 8 9 9 9
6 8 3 0 2 1 4 5 6 5 4 8 8 3 2 1 8 14 12 15 20 20 18 18 17 17 18 18 20 21 20 18 19 21 21 21 23 24 26 27 27 26 24 22 20 21 21 22 22 22 22 22 22 22 21 21 20 20 20 19 17 17 16 15 15 14 14 13 13 14 14 14 14 14 14 14 13 13 12 12 13 12 11 10 10 10 9 9 10 10 9 9 9 10 10 10 10
6 3 3 1 3 2 6 5 6 4 4 9 7 1 5 6 14 18 12 15 21 21 20 21 19 18 19 19 20 20 20 21 22 22 21 21 21 22 22 23 26 27 26 24 23 23 21 21 21 22 23 24 24 23 23 22 21 21 20 20 19 18 17 16 16 15 15 15 14 15 16 16 15 16 16 16 15 14 14 14 14 14 13 13 12 12 12 11 12 12 11 11 11 11 11 11 12
4 2 2 2 1 4 5 4 7 4 4 8 5 2 5 7 12 13 13 19 22 22 21 21 21 20 20 20 21 21 20 22 22 21 21 21 21 21 21 21 24 27 28 27 26 24 23 21 21 22 23 24 24 24 24 23 22 21 21 20 19 19 19 18 18 17 16 16 16 16 17 17 17 18 18 18 18 17 16 15 14 15 15 15 15 14 14 14 14 14 13 12 12 12 12 13 13
1 3 3 1 3 4 6 2 8 4 3 7 5 2 5 7 7 5 15 23 22 23 22 20 21 20 21 22 22 22 21 21 21 21 21 21 22 22 21 21 22 25 28 29 28 26 25 24 23 22 23 23 24 24 24 23 23 23 22 21 20 20 20 19 19 18 17 17 17 17 17 17 18 19 20 20 20 19 18 17 15 16 17 17 17 16 15 16 16 16 14 13 13 13 13 14 14
1 3 4 3 4 3 4 2 6 4 3 4 3 2 3 5 4 6 14 21 21 20 19 20 21 20 21 22 23 24 23 22 23 23 22 22 23 22 21 21 21 22 25 28 29 28 27 26 25 24 23 23 23 24 24 23 23 23 23 22 21 21 20 19 19 18 18 18 17 17 17 18 19 20 21 21 21 21 21 19 18 17 18 18 18 18 17 16 16 16 15 14 14 14 15 15 15
3 1 2 3 4 4 2 3 5 5 4 4 4 2 4 6 3 8 13 17 18 18 18 19 20 21 21 21 24 26 25 26 26 25 24 23 23 23 22 21 21 21 21 25 27 28 27 26 26 25 23 23 22 23 24 24 23 24 23 23 23 22 21 20 19 19 18 17 17 16 16 17 19 20 22 23 23 23 23 22 21 20 20 19 19 19 17 16 16 16 15 15 15 16 16 16 16
4 4 2 2 3 4 5 3 4 7 3 4 5 3 9 9 6 8 13 15 17 19 20 20 20 21 22 22 24 26 28 29 28 27 24 23 23 23 23 22 22 22 21 23 25 27 27 27 26 25 24 23 22 22 23 23 24 24 24 24 24 23 22 21 20 19 18 18 17 16 16 17 18 19 21 23 24 24 24 24 23 22 21 20 20 19 19 18 17 17 16 16 16 16 16 16 17
8 7 6 5 4 4 5 3 4 7 5 3 7 6 9 9 8 9 13 15 17 19 20 21 21 21 22 23 25 26 28 29 28 26 24 24 25 24 23 23 23 23 23 23 24 26 27 28 28 27 25 24 23 23 23 24 25 25 26 26 26 25 23 22 20 19 19 18 18 17 17 17 17 18 20 23 25 26 26 25 24 23 22 21 20 19 17 16 16 17 17 16 17 17 17 17 18
7 7 6 6 6 3 3 2 3 4 5 4 7 7 7 9 8 10 15 15 16 19 19 21 24 24 24 25 26 26 27 27 24 22 23 23 24 24 25 24 24 24 25 25 25 26 27 28 29 28 26 25 24 24 24 25 26 26 26 26 26 25 23 22 20 19 19 18 18 18 18 18 18 18 19 21 25 27 26 25 23 23 22 21 19 15 13 12 14 16 17 17 17 18 18 18 19
4 6 6 6 5 4 2 2 2 2 3 4 4 4 9 10 8 11 13 10 14 21 20 22 25 27 27 26 26 27 26 26 24 22 23 23 24 24 25 26 26 27 26 26 27 27 27 28 29 28 27 26 26 25 25 25 25 25 25 24 23 23 22 21 20 19 18 18 18 18 18 18 18 18 18 20 22 24 25 24 23 23 22 20 17 13 11 12 13 13 15 16 17 18 19 19 20
2 3 5 5 5 3 1 2 1 2 2 3 2 2 9 10 8 11 12 12 17 25 26 25 26 27 28 29 28 28 28 28 26 25 24 24 24 24 25 27 27 28 27 27 27 27 28 29 29 28 28 28 27 26 25 25 24 24 24 23 22 22 22 21 20 19 18 18 19 19 18 18 18 18 19 20 21 21 21 22 22 22 21 19 16 14 13 13 13 13 13 15 16 18 19 19 20
3 4 5 4 4 4 1 2 1 2 1 1 2 2 6 7 6 8 15 20 20 23 26 27 27 28 28 28 28 30 31 30 28 27 26 25 25 25 26 27 27 27 28 28 28 28 29 29 29 29 29 29 27 27 26 24 24 23 23 22 22 21 21 21 21 21 21 21 21 20 19 19 18 18 19 19 20 19 19 19 20 21 21 20 17 17 16 14 14 14 14 14 16 18 20 19 19
2 3 4 4 5 4 3 3 2 3 4 1 3 5 6 5 6 8 13 17 17 20 23 26 30 31 29 28 28 30 30 30 30 28 26 26 26 27 27 27 26 27 29 29 29 29 29 29 29 29 29 29 28 27 26 25 25 25 24 24 24 24 24 24 25 25 25 23 21 19 18 17 17 17 18 18 18 18 17 17 19 21 22 21 19 19 18 15 14 15 15 15 16 17 18 18 19
4 3 5 6 7 5 6 6 5 4 4 3 3 1 5 5 5 8 7 6 11 18 18 23 31 32 31 31 31 30 30 29 29 27 26 26 26 27 27 27 27 28 28 27 26 27 28 28 28 29 30 30 29 28 27 27 27 27 27 28 28 29 29 29 28 27 25 22 19 17 16 16 16 16 17 17 17 16 15 15 19 23 23 22 21 19 17 16 18 19 18 18 18 18 18 20 22
3 4 4 8 9 9 9 7 4 3 2 3 3 4 5 6 5 8 6 5 9 11 12 20 29 30 31 33 33 31 30 29 29 28 27 27 27 27 28 28 28 27 26 24 24 25 26 28 28 29 30 31 30 30 29 30 30 30 31 31 31 31 31 29 27 25 23 20 18 18 17 17 17 17 17 17 15 14 15 15 17 21 22 22 20 18 17 19 21 21 20 20 21 20 21 22 24
4 4 5 10 10 9 8 7 4 3 3 3 4 4 2 5 6 8 5 6 8 7 8 15 23 28 30 33 33 32 31 30 29 29 28 28 28 28 28 27 27 26 25 25 26 26 27 27 28 29 30 31 31 31 31 32 32 32 32 33 33 32 31 28 26 24 22 20 19 19 19 18 18 18 17 17 15 14 14 15 15 17 19 19 19 19 19 20 20 20 20 20 20 20 20 22 24
4 4 7 8 8 8 6 6 4 2 3 2 5 1 2 5 7 7 4 3 7 8 8 10 17 26 29 31 32 31 30 29 28 27 25 25 26 27 27 26 26 25 25 26 27 27 28 28 29 29 30 31 31 31 32 32 32 33 33 34 34 33 31 28 25 24 23 22 21 20 20 20 19 19 18 17 16 14 13 14 15 16 18 18 19 19 20 19 18 18 18 18 20 20 21 23 26
4 5 7 5 5 5 4 5 4 3 2 4 6 2 2 5 6 5 2 3 7 8 8 8 12 19 24 28 29 27 27 27 28 27 25 23 24 25 26 26 26 26 26 26 26 27 28 29 31 31 31 31 31 32 32 32 32 33 34 34 34 33 31 28 27 26 25 23 23 22 21 20 19 19 17 16 16 15 15 16 17 17 17 18 18 18 18 17 16 18 19 21 21 21 22 24 26
8 7 7 7 6 5 4 3 4 4 1 6 7 3 3 3 6 4 4 5 7 7 6 7 7 9 15 20 21 20 21 22 24 25 25 25 26 27 28 28 29 29 29 29 29 29 29 30 31 32 32 32 32 33 33 33 33 34 34 34 34 33 31 30 28 27 25 24 24 23 22 20 19 18 17 17 17 17 17 17 16 14 12 13 14 15 15 16 18 21 24 24 22 21 22 24 26
9 5 5 5 4 4 4 4 3 2 4 6 5 2 3 3 6 5 5 6 6 6 6 6 5 4 7 10 12 12 13 14 16 18 19 22 23 26 27 29 30 31 31 31 31 31 31 31 32 32 33 33 33 33 34 34 34 34 35 35 34 33 32 31 29 27 25 25 24 22 21 20 19 18 18 19 18 16 15 14 11 10 12 13 15 17 18 19 20 22 22 21 20 19 21 22 24
5 5 7 5 2 3 2 2 1 2 5 4 3 2 2 5 7 8 9 10 8 7 7 8 9 9 9 9 9 9 9 10 11 12 15 17 19 21 23 25 27 28 29 29 30 30 30 30 31 31 31 31 31 32 33 33 34 34 34 34 34 33 32 31 29 27 26 25 24 22 21 21 20 19 18 18 16 14 12 10 10 12 14 15 17 18 19 18 17 17 17 17 18 19 20 22 23
5 7 6 5 4 3 1 3 2 3 5 3 3 2 2 4 6 9 12 15 14 9 7 9 11 11 10 10 9 8 7 7 7 9 12 14 16 18 20 22 23 24 25 26 28 28 27 27 26 26 26 26 27 28 30 31 32 32 32 32 32 32 31 30 28 27 25 24 24 23 22 20 20 19 17 16 14 13 12 11 12 13 13 13 14 14 14 13 13 14 14 16 17 18 19 20 21
5 5 6 6 5 5 4 4 3 3 3 2 2 2 3 3 4 7 10 15 14 9 8 10 11 11 11 10 10 10 8 7 7 8 8 10 11 12 14 14 15 17 19 22 24 25 24 22 21 21 21 22 23 24 26 28 29 29 30 30 30 30 29 28 27 26 25 25 24 24 22 20 18 18 16 15 15 15 14 13 12 11 11 11 11 10 11 11 12 13 14 15 15 16 17 18 18
3 2 5 4 5 5 4 3 5 5 2 1 2 2 5 4 6 9 8 8 7 7 8 9 10 12 12 13 14 13 11 9 8 7 7 8 8 7 7 7 8 10 12 15 17 18 18 18 18 17 18 19 20 21 22 24 25 26 27 28 28 28 27 27 27 27 26 26 25 24 23 21 18 17 17 17 17 16 14 12 11 10 9 9 9 9 10 10 12 13 14 15 15 15 15 15 15
1 3 4 5 4 7 5 2 1 4 3 2 2 3 5 3 5 10 7 5 5 5 7 9 12 13 14 17 17 14 12 11 9 7 7 7 6 6 6 5 6 6 7 9 10 12 13 14 15 15 16 16 17 17 18 19 21 22 24 26 26 27 27 27 27 27 26 26 25 24 22 20 18 18 17 16 15 13 12 10 9 8 7 8 8 9 10 11 12 13 13 13 13 12 13 12 13
4 4 6 4 3 4 4 2 2 3 2 3 2 4 4 2 2 6 4 4 7 7 7 9 10 11 14 17 16 14 12 11 10 8 8 7 6 6 6 6 6 6 7 8 9 10 11 12 12 11 12 12 12 12 13 14 15 17 20 23 24 25 26 26 26 25 25 24 22 19 18 17 17 15 14 12 10 10 9 8 6 6 6 7 8 9 10 11 11 11 11 11 11 11 12 12 12
3 4 4 4 3 2 2 3 2 2 3 4 3 4 3 3 4 4 2 6 8 7 7 7 8 11 14 13 13 14 13 12 11 10 9 8 8 7 7 7 7 7 7 8 8 9 9 9 9 9 9 9 9 9 10 11 12 14 17 19 21 23 24 24 24 23 22 18 16 16 15 14 12 10 9 8 8 7 6 5 5 6 6 7 8 8 9 9 9 9 9 9 10 11 12 12 12
3 2 2 2 2 4 3 3 4 3 3 4 3 2 3 5 6 5 7 9 8 7 7 6 9 14 15 13 14 16 15 13 12 11 10 10 9 8 8 8 7 7 7 7 7 7 8 8 8 9 9 9 9 9 9 10 11 12 14 16 18 20 20 20 20 19 17 15 14 14 12 10 8 7 7 6 5 3 4 5 5 6 7 7 7 7 7 7 7 8 8 9 10 12 12 12 12
2 4 5 3 1 3 2 2 3 4 4 4 2 2 5 6 5 8 11 10 7 8 7 7 13 16 15 14 16 17 15 13 12 12 11 11 10 10 9 8 8 7 7 7 7 7 7 8 8 8 8 8 9 9 9 10 10 11 12 13 15 16 16 16 16 16 15 14 12 11 9 7 7 6 5 3 3 3 4 5 5 5 6 5 6 6 6 7 7 8 10 10 11 11 11 12 13
4 6 8 7 4 4 4 3 2 2 4 4 4 3 7 7 4 7 9 7 7 10 10 10 14 14 11 12 16 16 14 13 13 13 12 11 11 10 9 9 8 8 8 8 8 7 7 8 8 8 8 8 8 8 9 10 10 11 12 13 14 15 15 16 15 14 13 10 9 7 7 7 6 4 3 3 4 4 4 4 4 4 4 4 4 5 6 7 8 9 10 10 10 10 10 11 11
Wind_Direction
270 268 280 286 293 291 311 1 325 305 67 212 258 133 218 161 125 116 99 80 73 63 74 83 71 65 89 113 114 91 54 19 207 147 141 141 143 159 165 168 174 158 151 145 144 138 130 119 104 91 81 81 91 106 114 122 118 112 111 106 99 92 83 72 64 64 62 58 60 63 69 74 76 75 70 66 65 65 65 66 72 73 73 73 74 74 75 76 77 80 85 91 96 100 100 95 90
271 267 274 277 283 291 322 8 43 345 41 9 283 171 181 120 95 123 125 106 108 104 91 91 74 73 111 114 103 78 44 46 122 120 123 137 148 166 171 176 182 160 153 147 145 140 130 121 107 94 87 88 99 113 119 126 123 116 114 109 104 96 88 76 69 68 65 59 60 63 68 74 77 79 73 68 64 62 65 68 71 73 74 74 74 75 75 77 80 82 84 88 93 98 99 96 93
273 261 243 261 277 303 318 349 95 24 34 208 266 269 155 91 108 127 124 114 110 111 106 98 73 69 99 89 55 76 75 88 117 120 125 145 153 162 172 180 180 162 153 147 146 141 131 123 111 98 94 93 102 116 122 129 129 120 118 114 107 100 93 82 74 72 69 63 61 63 68 75 82 84 77 72 67 59 61 68 70 71 75 76 76 77 77 78 80 83 86 87 91 96 96 95 96
269 251 231 256 307 349 343 38 144 140 332 220 218 303 54 110 123 115 114 113 114 120 117 105 74 68 83 93 87 89 111 124 129 129 135 153 156 161 172 172 169 159 150 147 146 141 135 127 117 107 100 98 103 116 125 132 134 124 121 118 112 104 95 84 80 78 72 64 62 64 65 73 84 89 85 78 74 66 63 64 66 70 74 74 75 76 77 77 78 82 87 89 91 93 93 96 100
256 236 223 234 7 358 69 73 144 111 251 200 145 243 121 122 123 112 114 115 120 129 126 110 91 95 85 95 104 99 130 141 142 141 142 157 164 165 166 159 159 154 148 147 146 143 138 132 123 115 107 104 104 115 125 132 136 129 124 123 117 110 101 92 88 84 72 63 65 66 66 71 82 91 90 85 81 79 75 69 67 71 75 75 74 76 78 78 80 83 87 89 91 91 93 99 102
251 222 208 205 291 309 57 252 309 345 248 170 127 181 144 133 125 116 117 118 119 132 141 118 117 116 83 80 95 118 144 146 150 151 149 157 164 162 157 155 158 152 148 146 146 146 141 137 128 120 116 110 106 114 124 129 136 137 133 127 122 116 110 105 99 91 73 65 68 67 69 72 81 91 93 92 90 90 88 84 78 72 75 78 77 78 79 82 83 84 86 89 90 92 97 101 102
245 200 183 192 259 288 120 186 243 252 263 142 135 163 149 139 127 120 119 117 111 136 147 127 130 110 85 116 101 115 157 162 155 153 153 154 157 156 153 157 162 153 146 147 149 150 145 141 133 125 122 117 112 113 122 128 133 141 139 131 127 124 119 116 115 105 79 69 71 72 76 78 84 95 96 95 97 99 97 95 87 73 74 80 83 83 83 85 86 86 87 89 92 95 99 102 101
223 178 104 108 338 346 130 206 244 198 275 81 136 152 147 142 131 125 126 128 133 154 150 129 129 101 93 145 105 111 153 167 156 153 155 152 154 155 157 164 167 155 144 150 153 154 150 145 140 132 129 124 117 113 120 125 129 139 140 135 133 131 128 127 125 109 83 75 77 79 84 87 91 97 99 100 103 106 105 100 91 82 80 81 82 83 84 87 89 89 89 90 92 95 98 101 100
207 220 315 115 145 320 276 275 254 199 270 81 121 146 144 141 136 129 122 127 141 164 162 137 122 122 125 116 104 130 149 166 159 156 158 154 157 156 160 174 173 157 146 156 157 157 153 149 148 140 138 131 123 115 117 122 124 132 135 134 136 136 135 133 128 105 88 85 85 87 91 96 99 102 107 110 106 103 102 97 91 86 80 78 78 79 84 88 91 92 91 91 92 94 96 98 97
190 236 268 82 129 271 289 292 219 194 252 144 125 149 145 141 137 129 127 131 153 168 164 140 116 132 127 108 112 144 152 164 164 161 160 154 157 159 167 181 176 156 152 159 159 160 156 154 155 147 144 137 131 121 117 122 123 126 128 130 135 138 138 137 129 110 99 96 94 94 98 104 106 106 104 104 102 98 98 95 89 84 80 78 79 80 82 86 90 93 93 94 93 94 95 94 94
134 265 266 70 95 185 244 256 195 214 251 138 124 150 146 143 134 126 132 134 157 158 161 148 125 131 118 112 129 150 161 168 174 164 159 156 156 164 175 180 173 162 160 159 161 164 159 158 158 153 149 143 138 129 121 122 125 127 126 126 129 134 136 135 128 117 109 104 102 101 103 106 106 101 93 91 97 98 96 95 91 86 85 82 81 81 81 84 89 93 96 97 97 97 96 95 94
196 301 59 121 177 200 205 172 185 222 272 98 125 150 143 143 134 128 134 132 147 144 165 161 140 144 112 103 142 155 169 171 178 165 160 159 156 169 178 176 173 170 168 163 166 167 163 161 157 155 151 148 144 136 129 124 126 129 128 128 128 129 130 128 124 119 114 108 105 103 103 103 100 98 94 90 94 97 98 99 96 94 91 87 84 83 82 85 88 93 97 99 100 101 101 99 98
220 351 60 179 192 182 164 142 177 172 202 225 172 153 138 140 135 141 139 132 147 142 172 168 142 150 113 105 146 161 173 172 176 166 163 160 157 173 179 178 179 174 175 172 170 171 167 161 155 156 152 150 149 142 138 131 128 128 129 131 129 130 127 125 122 118 114 110 107 103 101 101 99 98 98 97 97 101 104 105 103 99 96 90 86 85 84 85 87 92 96 99 101 103 105 104 103
219 358 33 225 226 172 148 136 180 161 191 234 170 155 139 132 127 143 141 128 151 157 172 174 141 128 123 121 155 174 174 174 175 166 164 159 158 175 182 184 184 177 179 178 173 176 171 162 157 158 155 152 151 148 144 139 134 130 128 129 131 132 129 127 124 121 116 114 112 107 104 104 104 103 103 105 107 108 110 111 109 105 100 95 91 88 86 83 84 88 92 96 99 101 104 107 108
254 329 323 237 329 316 192 167 176 154 181 211 165 157 137 118 119 138 143 137 139 154 159 166 152 110 158 166 182 183 176 176 173 165 163 158 163 177 185 188 186 181 183 182 177 177 175 167 161 161 160 155 153 151 147 144 140 135 130 130 132 133 132 130 128 127 121 118 118 115 113 112 111 112 115 117 119 118 119 119 117 114 109 103 98 93 88 84 82 82 86 90 94 98 102 107 111
275 318 27 300 279 263 248 178 136 132 198 194 163 153 131 105 120 121 138 152 132 141 155 155 161 114 165 195 215 182 173 176 172 165 163 160 166 175 185 189 188 186 186 185 181 177 177 173 167 167 166 160 159 156 152 150 145 143 138 135 136 135 134 130 130 130 127 125 124 123 122 121 120 120 125 128 130 129 129 130 129 125 119 112 105 98 93 88 83 79 80 82 86 92 99 105 111
282 6 24 292 253 206 228 185 149 162 183 182 170 157 138 100 118 116 121 149 133 135 147 125 155 142 152 202 210 176 171 175 172 168 166 166 170 174 183 190 189 190 189 187 182 177 178 177 173 172 173 169 168 164 158 155 152 152 149 147 144 140 138 133 131 130 129 130 131 133 131 132 131 129 131 135 138 138 139 139 139 138 132 126 116 107 100 93 88 83 79 78 80 83 90 97 103
191 120 168 256 237 205 223 201 171 152 150 175 181 165 149 135 130 127 118 136 132 126 132 124 140 145 147 154 157 170 172 175 176 173 172 173 177 178 182 189 189 189 192 189 183 181 178 179 179 178 179 177 177 174 169 164 160 159 159 159 156 150 146 140 137 133 131 131 137 141 139 143 142 138 138 141 147 148 148 149 150 150 146 139 127 115 105 99 94 89 84 79 79 80 83 87 90
185 144 175 234 218 242 295 168 155 139 150 167 173 166 159 160 149 142 134 140 140 127 124 130 131 131 141 153 157 170 175 178 181 180 180 181 185 187 185 191 191 187 193 192 186 186 181 179 183 183 185 186 184 183 181 177 173 171 170 172 170 165 159 154 149 144 140 137 140 144 146 150 149 150 147 146 153 155 156 157 161 161 157 152 139 127 114 106 102 96 94 86 80 79 81 84 79
202 174 224 245 234 325 6 108 163 158 152 156 168 168 165 171 163 157 161 153 155 154 153 147 141 146 153 162 169 175 179 183 185 186 187 188 192 195 192 195 196 190 192 193 188 189 187 183 187 188 189 192 191 190 191 188 185 184 184 187 189 184 176 172 166 160 157 152 147 150 157 155 152 158 153 150 157 161 164 165 168 170 166 163 155 149 138 125 116 108 109 102 88 83 90 86 66
191 172 206 257 259 299 7 15 163 161 154 157 167 161 157 171 174 173 162 147 185 191 186 190 176 172 171 171 179 182 184 186 187 190 192 193 196 198 198 199 202 195 191 194 191 191 193 189 190 194 193 195 196 196 197 195 194 195 195 198 203 200 192 186 182 179 176 173 160 157 164 154 148 156 154 158 166 169 172 174 178 181 177 171 170 168 166 166 157 160 165 135 151 234 226 214 255
207 217 222 258 292 166 30 23 134 155 152 155 159 146 151 163 173 181 169 157 217 211 206 214 205 196 192 187 187 188 191 190 190 194 197 199 199 200 200 200 202 198 193 197 197 194 197 195 194 199 199 197 199 202 204 204 203 204 204 204 208 209 203 197 195 192 194 196 180 169 171 151 145 152 153 163 172 179 183 184 188 192 189 185 190 196 202 214 219 231 257 264 279 277 256 247 251
229 256 229 253 272 152 173 49 124 156 151 149 155 147 151 152 168 185 183 184 206 217 216 214 211 210 206 198 192 193 196 195 196 200 203 204 203 203 203 202 204 203 200 201 203 199 198 200 200 204 207 203 202 204 211 213 211 211 213 210 210 213 211 206 203 199 204 213 204 192 190 160 153 162 161 164 170 188 195 192 194 199 203 206 209 213 230 237 241 250 266 271 282 293 293 300 308
208 266 268 276 201 152 176 99 108 152 150 150 157 150 154 152 160 185 193 194 179 190 204 206 209 206 200 198 198 201 203 202 203 206 208 209 208 209 208 207 208 210 207 204 207 206 202 204 205 208 213 213 209 208 214 219 220 219 220 219 215 216 217 213 213 207 206 219 219 209 211 191 175 187 192 177 173 190 198 195 196 198 207 219 220 217 232 243 243 251 265 273 279 290 303 315 317
207 241 246 188 183 148 176 158 108 136 138 146 153 143 159 163 158 184 193 185 167 162 169 184 194 197 196 199 203 204 206 207 207 208 209 211 210 210 210 211 210 212 214 209 208 210 208 208 209 212 216 218 218 217 218 222 224 226 227 227 225 223 223 222 222 218 211 219 226 222 224 220 201 203 218 211 197 203 204 205 206 202 209 222 229 227 238 249 252 257 266 275 282 291 301 306 307
224 221 196 167 165 141 161 165 133 130 129 142 143 119 138 164 163 199 197 187 183 193 187 174 181 190 194 199 202 202 205 207 209 210 211 211 208 208 209 211 214 216 219 216 212 212 211 210 212 214 217 219 220 224 225 225 227 230 231 231 232 232 230 228 225 224 220 221 229 230 229 231 223 216 223 229 227 227 222 223 228 224 225 229 241 248 252 261 266 273 278 282 288 293 295 294 296
250 201 169 151 160 158 162 166 153 143 137 146 144 117 120 152 166 223 199 191 196 199 192 183 183 189 193 197 200 201 206 211 214 213 212 212 209 208 208 208 216 222 224 223 220 218 217 215 216 217 219 220 219 225 229 230 231 233 237 236 237 237 235 236 232 230 227 225 229 234 233 232 234 228 225 231 235 238 236 237 242 242 245 246 250 257 262 267 272 277 281 283 285 288 290 291 295
179 160 138 130 148 147 161 147 152 151 147 159 137 110 104 121 171 227 199 192 203 198 186 185 189 194 196 197 199 202 207 214 217 214 213 214 213 211 208 208 214 222 225 227 227 225 224 222 222 222 223 224 222 224 228 230 232 234 240 241 242 242 241 241 240 238 234 230 231 236 238 236 239 240 236 236 237 240 242 243 247 248 249 251 255 261 265 268 270 274 278 280 282 284 289 294 298
163 155 130 294 66 85 201 158 166 165 147 162 127 89 277 190 220 226 208 196 200 196 189 188 190 195 198 201 203 207 211 213 215 217 219 220 220 218 214 212 214 221 226 228 231 230 228 226 225 225 227 228 227 228 229 231 232 233 237 241 243 243 243 244 243 243 242 239 236 237 241 241 242 245 245 246 244 243 244 244 249 252 252 252 255 260 264 266 268 272 275 279 282 285 290 294 297
178 172 128 159 13 306 230 181 169 154 149 170 143 185 258 248 235 230 214 195 192 192 194 194 194 196 200 206 209 213 213 213 216 219 222 223 223 224 222 219 217 221 226 227 231 234 234 231 227 227 229 231 231 231 231 232 233 234 236 239 241 242 244 246 246 245 243 243 242 238 240 241 241 244 247 250 251 250 247 246 249 253 256 255 257 260 263 265 268 272 276 279 282 284 288 290 293
180 200 134 137 137 259 262 184 162 135 176 184 149 209 251 258 253 243 212 195 188 191 198 201 202 202 204 209 212 217 216 215 220 221 222 224 225 225 225 224 220 220 224 227 231 236 238 237 232 229 229 231 233 233 234 233 233 236 238 240 240 241 243 245 247 247 243 242 243 240 239 237 236 240 244 248 253 254 253 251 249 252 257 258 259 260 262 264 267 271 274 277 279 282 285 286 288
168 185 245 238 162 251 306 223 176 153 189 189 152 204 258 266 265 238 198 195 193 197 202 205 208 209 210 212 214 219 221 222 224 223 222 224 225 226 225 225 224 220 221 225 231 235 238 239 238 234 232 231 232 234 236 235 234 236 239 242 243 244 243 244 247 249 247 244 242 242 241 238 234 237 241 246 250 254 256 255 253 252 254 257 260 260 261 265 267 268 270 273 275 277 279 281 284
283 166 203 214 175 229 305 273 214 182 148 192 202 209 254 274 244 170 181 192 198 202 204 206 210 215 215 215 217 219 222 222 224 224 223 224 225 227 226 225 226 223 221 224 228 232 236 238 238 238 236 234 233 234 235 236 235 236 239 242 245 246 246 246 248 250 251 250 247 243 242 241 237 235 238 243 247 252 255 256 255 252 252 254 257 258 260 264 266 266 269 272 274 275 277 279 281
260 157 168 220 182 173 225 285 244 188 139 200 218 219 240 275 247 177 182 190 197 204 209 211 212 217 220 220 219 220 221 221 225 226 224 225 227 227 227 227 227 227 224 223 227 231 235 238 239 240 240 237 235 233 234 235 235 235 238 241 244 247 248 248 248 249 251 253 253 249 246 244 241 238 237 241 246 250 253 256 254 253 252 253 255 258 259 259 262 266 269 273 276 279 282 284 283
188 173 174 246 187 179 199 234 222 175 150 203 192 235 251 265 271 215 200 195 202 211 218 221 218 217 221 221 220 221 222 225 230 232 230 229 230 230 229 227 227 228 227 225 225 228 232 236 239 240 240 239 236 233 232 233 234 233 234 236 240 243 246 247 246 248 251 254 256 255 252 248 246 242 238 239 244 248 252 256 258 259 260 261 262 262 260 259 263 268 272 275 277 279 282 287 288
177 181 181 192 185 212 213 230 226 169 150 206 195 221 244 252 266 245 222 209 212 223 228 228 222 219 221 222 222 222 225 231 235 236 236 233 232 232 232 229 229 228 228 227 225 225 227 231 234 236 237 237 235 232 228 228 229 230 230 233 237 242 246 248 249 250 252 255 258 259 258 255 251 247 242 239 241 244 249 254 258 261 263 265 265 265 266 266 268 271 274 275 275 274 276 283 288
181 184 193 194 183 215 237 256 271 147 143 222 218 224 251 252 255 254 242 225 219 225 230 232 225 220 220 221 222 223 228 237 239 237 236 235 234 233 233 232 230 229 228 228 226 225 226 228 231 233 233 233 232 230 228 227 228 229 232 235 239 244 249 252 255 256 257 260 263 265 265 264 262 258 252 246 245 245 247 249 252 255 258 262 263 266 269 270 270 270 269 269 269 270 275 283 290
190 187 197 207 195 211 250 243 276 63 135 244 253 238 259 259 253 260 249 225 222 224 222 229 227 222 222 221 222 226 233 239 238 236 235 233 233 232 231 231 230 230 229 228 228 227 228 228 230 232 232 232 232 232 231 231 233 235 239 243 246 249 252 256 259 261 263 264 265 267 268 267 267 266 263 258 252 249 248 248 249 250 253 256 258 260 262 267 271 270 266 264 265 270 277 284 288
166 167 177 207 208 188 312 329 319 45 132 264 331 238 257 265 260 261 248 225 229 229 223 227 227 223 223 222 223 227 232 236 235 234 235 232 231 229 229 230 230 231 232 232 232 230 229 230 231 232 233 233 234 235 235 235 238 241 244 247 248 249 253 257 259 261 260 259 260 262 263 264 264 265 263 262 258 254 250 249 248 248 249 250 249 251 257 265 269 266 264 264 266 270 275 279 283
140 129 149 203 196 157 211 285 326 42 103 188 39 336 275 273 269 264 249 238 237 236 231 232 231 229 230 229 229 231 232 234 234 233 233 231 229 228 228 230 230 231 232 232 233 232 231 231 233 234 234 236 236 237 238 239 241 242 243 245 246 248 251 255 256 256 254 254 256 259 262 263 264 266 265 265 264 259 254 251 249 246 244 244 245 249 254 260 264 262 262 263 265 270 274 279 283
233 158 147 178 182 164 168 158 116 19 360 64 69 355 302 264 255 257 252 246 245 242 233 230 232 233 236 236 234 236 237 238 236 233 231 229 228 228 230 232 233 233 232 232 232 233 235 235 236 237 238 239 240 240 241 241 241 240 239 238 237 238 239 243 247 251 254 255 259 263 266 266 266 268 267 267 265 257 250 247 243 240 241 242 243 248 252 258 261 259 261 265 267 272 279 285 285
261 218 173 164 164 136 115 118 93 48 336 300 99 20 295 293 267 251 257 261 248 242 230 227 232 232 232 233 235 237 240 241 240 237 234 232 231 231 232 233 233 234 234 234 235 236 239 240 240 240 241 242 243 243 242 242 243 242 241 239 238 238 239 243 251 258 261 264 267 269 267 267 267 267 266 266 264 258 254 248 240 237 240 241 242 247 253 260 260 257 260 266 268 272 277 280 281
234 244 173 138 130 119 127 135 108 107 225 285 93 146 258 316 309 263 266 269 251 243 230 230 233 233 231 232 235 237 239 240 238 238 237 234 235 233 232 233 233 235 236 236 238 239 240 241 241 242 243 244 244 244 243 243 245 246 246 246 247 248 249 254 259 262 263 264 266 267 267 269 268 267 266 265 264 262 260 255 244 237 239 243 245 250 256 258 257 256 260 265 266 268 271 274 281
212 237 138 124 123 134 148 138 118 164 183 335 20 126 211 294 280 274 284 276 276 270 242 236 233 232 233 234 237 238 238 238 236 236 236 234 234 235 236 237 237 239 239 238 238 238 239 240 241 241 243 244 244 244 244 245 247 248 249 249 249 251 253 257 260 259 258 257 258 262 266 268 267 266 264 263 264 262 256 253 249 242 242 247 251 254 257 256 257 260 263 265 265 266 268 274 284
228 205 135 134 134 140 142 118 103 99 112 309 308 122 172 270 271 292 321 268 274 271 247 241 234 231 231 233 235 236 234 233 232 234 235 233 232 233 236 238 239 241 240 239 239 239 239 240 240 239 239 241 243 243 244 245 247 248 249 249 249 250 252 253 253 252 252 252 254 258 261 263 263 262 260 260 262 260 254 251 251 248 245 247 249 252 256 257 261 266 266 265 265 267 271 278 286
195 149 100 84 84 94 99 104 102 65 78 245 258 202 175 270 283 296 318 247 247 256 252 251 247 240 236 235 236 236 233 231 231 232 233 231 228 227 229 231 233 236 236 236 237 237 238 238 238 238 237 239 240 242 242 243 244 244 245 246 247 247 247 246 245 245 246 248 251 255 258 261 261 261 260 259 260 259 256 254 254 252 247 245 247 249 255 263 272 278 276 272 269 271 275 279 282
132 104 77 61 39 41 48 60 90 80 292 251 246 225 161 260 282 249 225 228 218 233 260 268 265 249 237 234 234 233 232 231 232 234 234 233 231 230 232 233 235 237 237 237 236 236 236 236 237 238 238 238 238 240 241 241 242 243 244 245 245 245 244 242 242 242 244 246 249 252 257 260 260 260 260 259 259 258 255 255 257 260 258 258 260 263 271 278 280 278 276 275 273 274 278 280 282
112 96 104 86 18 16 21 360 47 112 250 261 262 251 157 214 266 245 244 263 233 214 233 239 223 185 187 201 207 212 219 225 231 235 236 235 234 234 236 238 240 241 241 241 239 239 238 237 238 238 238 237 237 239 240 241 242 242 243 243 243 243 242 241 242 243 245 247 250 251 253 257 256 255 256 258 260 261 260 260 260 268 273 274 275 275 275 273 270 269 271 276 280 283 286 287 289
90 114 122 105 46 29 25 313 351 210 239 264 284 278 200 228 252 257 268 274 254 230 224 211 189 168 166 180 191 202 213 224 232 236 236 236 235 235 235 236 238 239 240 240 240 239 238 237 238 238 238 238 237 238 240 241 241 241 241 240 240 240 240 241 242 244 245 247 249 248 249 250 248 246 250 256 260 263 266 262 248 249 254 256 258 260 264 267 270 275 280 286 291 291 290 289 288
127 142 139 130 117 95 199 243 273 244 245 268 281 274 251 269 267 246 246 252 252 253 243 212 191 186 191 194 194 197 209 225 238 239 236 235 235 235 236 237 237 238 237 237 238 238 237 236 235 235 235 235 235 236 237 238 239 239 239 238 238 238 238 239 241 242 244 245 246 247 247 244 238 238 243 247 251 251 250 247 241 242 245 249 256 261 269 278 284 288 289 290 292 292 291 291 292
172 169 142 150 158 149 188 203 188 211 247 284 287 266 193 202 259 238 238 257 259 242 214 199 192 193 192 193 193 198 217 238 243 240 231 228 229 229 233 235 234 233 231 232 233 234 234 231 229 228 226 228 230 232 235 236 236 236 236 236 236 236 236 238 239 240 241 243 245 247 246 241 234 235 240 242 244 244 242 245 250 256 260 265 271 275 278 283 289 292 291 291 292 292 294 297 299
231 157 119 163 181 145 147 177 171 165 142 255 244 240 208 206 276 273 263 271 260 215 200 194 191 191 187 195 205 215 230 235 232 229 216 212 211 208 212 213 215 217 219 224 226 225 224 220 219 219 219 224 228 231 233 233 233 233 232 232 232 233 233 234 234 235 236 237 239 241 241 239 236 237 241 242 243 244 246 250 255 262 267 272 278 281 281 284 286 288 289 290 292 293 295 299 301
168 124 168 206 164 117 118 171 151 115 138 232 211 246 287 312 298 287 272 251 257 244 229 223 217 210 208 214 220 227 229 218 215 215 205 203 197 192 191 186 189 193 198 205 208 209 210 210 212 214 217 222 225 228 229 229 229 228 228 229 229 229 229 230 231 232 232 232 233 235 235 235 235 235 235 235 235 236 237 239 242 248 256 266 276 280 281 283 283 285 287 289 291 294 298 306 310
133 160 196 185 109 100 115 139 34 73 182 264 227 219 275 314 275 308 318 235 254 255 238 240 236 224 222 223 222 220 214 205 206 201 193 191 181 177 177 173 179 180 182 186 189 194 196 198 203 206 212 217 217 218 219 220 222 221 222 223 224 225 226 227 229 229 231 232 231 229 228 226 224 222 223 223 222 220 220 223 231 244 257 267 274 277 279 282 285 288 290 293 298 305 314 323 325
143 175 176 128 129 181 139 145 162 144 204 268 281 242 243 205 221 291 290 223 238 243 238 250 250 232 222 213 203 201 200 201 202 193 186 181 168 165 165 163 167 169 175 179 181 186 188 189 191 190 193 197 199 205 208 211 214 214 217 219 220 222 223 225 227 228 230 229 222 219 218 219 216 213 214 214 215 218 224 236 246 255 264 269 274 279 284 289 293 297 303 311 317 321 327 332 333
34 90 141 103 125 170 174 161 154 151 191 238 293 303 256 229 214 215 225 226 224 219 220 231 237 231 220 202 193 196 198 199 199 192 184 177 168 166 162 160 162 162 167 170 171 176 176 179 182 183 187 188 191 196 199 204 208 210 214 216 217 220 221 223 223 222 221 216 211 210 211 214 213 212 212 209 217 238 258 269 273 275 280 286 291 295 297 301 309 316 324 329 329 330 332 337 341
122 148 176 189 101 125 154 169 142 132 154 193 230 260 265 252 210 201 220 228 215 200 199 215 227 227 222 213 203 198 196 197 199 196 188 181 176 173 167 165 164 163 166 166 168 171 169 172 179 183 188 190 191 193 190 190 195 200 204 205 206 207 207 207 204 204 206 205 202 200 198 204 207 208 211 212 234 254 257 265 271 278 288 296 299 303 307 314 325 330 333 334 335 338 342 347 351
165 178 182 179 158 128 149 209 213 125 146 170 173 226 267 256 206 205 221 224 212 199 192 204 217 217 215 209 201 198 196 197 199 198 195 189 183 179 175 173 172 174 177 176 177 177 172 174 181 186 191 192 193 193 186 181 181 184 186 185 186 187 188 190 191 194 195 192 189 185 186 195 197 200 216 232 247 255 258 267 275 282 292 294 297 307 315 324 332 333 334 337 341 349 355 357 357